• In Belarus
  • List of Countries
  • For 7 days
  • Water Temperature
  • Satellite Maps
  • Weather Map
  • Weather Widgets
  • user-avatar
    Login

    Hourly Weather Lankaran

    Today, 21 June, Thursday

    Time Temperature Precipitation Wind Pressure Humidity
    00:00 +13°C° 0 mm 1 mps 634 mmHg 76%
    01:00 +13°C° 0 mm 1 mps 634 mmHg 74%
    02:00 +12°C° 0 mm 1 mps 634 mmHg 73%
    03:00 +12°C° 0 mm 1 mps 634 mmHg 71%
    04:00 +13°C° 0 mm 1 mps 634 mmHg 66%
    05:00 +14°C° 0 mm 1 mps 635 mmHg 61%
    06:00 +16°C° 0 mm 1 mps 635 mmHg 56%
    07:00 +18°C° 0 mm 1 mps 636 mmHg 50%
    08:00 +19°C° 0 mm 2 mps 636 mmHg 44%
    09:00 +21°C° 0 mm 2 mps 637 mmHg 39%
    10:00 +21°C° 0 mm 3 mps 636 mmHg 38%
    11:00 +22°C° 0 mm 3 mps 636 mmHg 36%
    12:00 +24°C° 0 mm 3 mps 636 mmHg 34%
    13:00 +24°C° 0 mm 3 mps 636 mmHg 35%
    14:00 +24°C° 0 mm 3 mps 636 mmHg 35%
    15:00 +23°C° 0 mm 4 mps 636 mmHg 35%
    16:00 +22°C° 0 mm 3 mps 635 mmHg 39%
    17:00 +21°C° 0 mm 3 mps 635 mmHg 43%
    18:00 +20°C° 0 mm 3 mps 635 mmHg 47%
    19:00 +18°C° 0 mm 2 mps 635 mmHg 53%
    20:00 +16°C° 0 mm 2 mps 634 mmHg 59%
    21:00 +14°C° 0 mm 2 mps 634 mmHg 65%
    22:00 +14°C° 0 mm 1 mps 634 mmHg 64%
    23:00 +14°C° 0 mm 1 mps 634 mmHg 63%

    Tomorrow, 22 June, Friday

    Time Temperature Precipitation Wind Pressure Humidity
    00:00 +14°C° 0 mm 1 mps 634 mmHg 63%
    01:00 +13°C° 0 mm 1 mps 633 mmHg 62%
    02:00 +13°C° 0 mm 1 mps 633 mmHg 62%
    03:00 +13°C° 0 mm 1 mps 633 mmHg 62%
    04:00 +14°C° 0 mm 1 mps 633 mmHg 57%
    05:00 +16°C° 0 mm 1 mps 634 mmHg 53%
    06:00 +18°C° 0 mm 1 mps 634 mmHg 49%
    07:00 +19°C° 0 mm 2 mps 635 mmHg 45%
    08:00 +20°C° 0 mm 2 mps 635 mmHg 40%
    09:00 +22°C° 0 mm 3 mps 635 mmHg 35%
    10:00 +24°C° 0 mm 3 mps 635 mmHg 33%
    11:00 +25°C° 0 mm 4 mps 635 mmHg 32%
    12:00 +26°C° 0 mm 4 mps 635 mmHg 30%
    13:00 +26°C° 0 mm 4 mps 635 mmHg 31%
    14:00 +26°C° 0 mm 4 mps 634 mmHg 31%
    15:00 +26°C° 0 mm 4 mps 634 mmHg 32%
    16:00 +23°C° 0 mm 4 mps 633 mmHg 36%
    17:00 +22°C° 0 mm 4 mps 633 mmHg 40%
    18:00 +21°C° 0 mm 3 mps 632 mmHg 44%
    19:00 +19°C° 0 mm 3 mps 632 mmHg 49%
    20:00 +17°C° 0 mm 2 mps 632 mmHg 55%
    21:00 +15°C° 0 mm 2 mps 632 mmHg 60%
    22:00 +15°C° 0 mm 1 mps 632 mmHg 59%
    23:00 +15°C° 0 mm 1 mps 632 mmHg 57%

    Day after tomorrow, 23 June, Saturday

    Time Temperature Precipitation Wind Pressure Humidity
    00:00 +15°C° 0 mm 1 mps 632 mmHg 55%
    01:00 +14°C° 0 mm 1 mps 631 mmHg 54%
    02:00 +14°C° 0 mm 1 mps 631 mmHg 54%
    03:00 +14°C° 0 mm 1 mps 631 mmHg 53%
    04:00 +15°C° 0 mm 1 mps 632 mmHg 51%
    05:00 +16°C° 0 mm 1 mps 632 mmHg 48%
    06:00 +18°C° 0 mm 1 mps 633 mmHg 46%
    07:00 +20°C° 0 mm 1 mps 633 mmHg 44%
    08:00 +21°C° 0 mm 2 mps 633 mmHg 41%
    09:00 +23°C° 0 mm 2 mps 634 mmHg 39%
    10:00 +24°C° 0 mm 3 mps 634 mmHg 37%
    11:00 +25°C° 0 mm 3 mps 634 mmHg 35%
    12:00 +26°C° 0 mm 3 mps 634 mmHg 33%
    13:00 +26°C° 0 mm 3 mps 634 mmHg 33%
    14:00 +26°C° 0 mm 3 mps 633 mmHg 34%
    15:00 +26°C° 0 mm 3 mps 633 mmHg 34%
    16:00 +25°C° 0 mm 3 mps 633 mmHg 37%
    17:00 +24°C° 0 mm 3 mps 633 mmHg 40%
    18:00 +23°C° 0 mm 2 mps 632 mmHg 44%
    19:00 +20°C° 0 mm 2 mps 632 mmHg 50%
    20:00 +19°C° 0 mm 1 mps 632 mmHg 56%
    21:00 +16°C° 0 mm 1 mps 632 mmHg 62%
    22:00 +16°C° 0 mm 1 mps 632 mmHg 61%
    23:00 +16°C° 0 mm 1 mps 632 mmHg 60%

    24 June, Sunday

    Time Temperature Precipitation Wind Pressure Humidity
    00:00 +16°C° 0 mm 1 mps 632 mmHg 58%
    01:00 +15°C° 0 mm 1 mps 632 mmHg 59%
    02:00 +15°C° 0 mm 1 mps 632 mmHg 59%
    03:00 +15°C° 0 mm 1 mps 632 mmHg 59%
    04:00 +16°C° 0 mm 1 mps 632 mmHg 56%
    05:00 +19°C° 0 mm 1 mps 633 mmHg 52%
    06:00 +20°C° 0 mm 1 mps 633 mmHg 48%
    07:00 +22°C° 0 mm 1 mps 634 mmHg 44%
    08:00 +23°C° 0 mm 2 mps 634 mmHg 39%
    09:00 +25°C° 0 mm 2 mps 635 mmHg 35%
    10:00 +26°C° 0 mm 3 mps 635 mmHg 34%
    11:00 +27°C° 0 mm 3 mps 635 mmHg 32%
    12:00 +28°C° 0 mm 3 mps 635 mmHg 30%
    13:00 +28°C° 0 mm 3 mps 635 mmHg 31%
    14:00 +28°C° 0 mm 4 mps 635 mmHg 31%
    15:00 +29°C° 0 mm 4 mps 634 mmHg 32%
    16:00 +27°C° 0 mm 3 mps 634 mmHg 36%
    17:00 +26°C° 0 mm 3 mps 634 mmHg 40%
    18:00 +25°C° 0 mm 3 mps 634 mmHg 44%
    19:00 +23°C° 0 mm 2 mps 633 mmHg 50%
    20:00 +20°C° 0 mm 2 mps 633 mmHg 56%
    21:00 +19°C° 0 mm 1 mps 633 mmHg 62%
    22:00 +18°C° 0 mm 1 mps 633 mmHg 61%
    23:00 +18°C° 0 mm 1 mps 633 mmHg 60%

    25 June, Monday

    Time Temperature Precipitation Wind Pressure Humidity
    00:00 +18°C° 0 mm 1 mps 633 mmHg 59%
    01:00 +18°C° 0 mm 1 mps 633 mmHg 59%
    02:00 +16°C° 0 mm 1 mps 633 mmHg 58%
    03:00 +16°C° 0 mm 1 mps 633 mmHg 58%
    04:00 +18°C° 0 mm 1 mps 633 mmHg 54%
    05:00 +19°C° 0 mm 1 mps 634 mmHg 51%
    06:00 +21°C° 0 mm 1 mps 635 mmHg 48%
    07:00 +21°C° 0 mm 2 mps 635 mmHg 44%
    08:00 +24°C° 0 mm 2 mps 636 mmHg 40%
    09:00 +26°C° 0 mm 3 mps 636 mmHg 36%
    10:00 +27°C° 0 mm 3 mps 636 mmHg 34%
    11:00 +28°C° 0 mm 3 mps 636 mmHg 32%
    12:00 +29°C° 0 mm 3 mps 636 mmHg 30%
    13:00 +28°C° 0 mm 3 mps 636 mmHg 30%
    14:00 +28°C° 0 mm 3 mps 636 mmHg 30%
    15:00 +28°C° 0 mm 4 mps 636 mmHg 30%
    16:00 +27°C° 0 mm 3 mps 635 mmHg 33%
    17:00 +26°C° 0 mm 3 mps 635 mmHg 36%
    18:00 +25°C° 0 mm 2 mps 635 mmHg 38%
    19:00 +23°C° 0 mm 2 mps 634 mmHg 41%
    20:00 +20°C° 0 mm 2 mps 634 mmHg 44%
    21:00 +18°C° 0 mm 2 mps 634 mmHg 47%
    22:00 +18°C° 0 mm 2 mps 634 mmHg 46%
    23:00 +17°C° 0 mm 2 mps 634 mmHg 45%

    26 June, Tuesday

    Time Temperature Precipitation Wind Pressure Humidity
    00:00 +17°C° 0 mm 2 mps 634 mmHg 45%
    01:00 +17°C° 0 mm 2 mps 633 mmHg 45%
    02:00 +18°C° 0 mm 1 mps 633 mmHg 45%
    03:00 +16°C° 0 mm 1 mps 633 mmHg 44%
    04:00 +19°C° 0 mm 1 mps 634 mmHg 43%
    05:00 +20°C° 0 mm 1 mps 634 mmHg 41%
    06:00 +21°C° 0 mm 1 mps 634 mmHg 39%
    07:00 +23°C° 0 mm 2 mps 635 mmHg 37%
    08:00 +25°C° 0 mm 2 mps 635 mmHg 34%
    09:00 +27°C° 0 mm 2 mps 636 mmHg 32%
    10:00 +28°C° 0 mm 3 mps 635 mmHg 31%
    11:00 +29°C° 0 mm 3 mps 635 mmHg 30%
    12:00 +30°C° 0 mm 3 mps 635 mmHg 30%
    13:00 +30°C° 0 mm 3 mps 635 mmHg 31%
    14:00 +30°C° 0 mm 3 mps 634 mmHg 32%
    15:00 +30°C° 0 mm 3 mps 634 mmHg 33%
    16:00 +29°C° 0 mm 3 mps 634 mmHg 37%
    17:00 +27°C° 0 mm 3 mps 634 mmHg 41%
    18:00 +26°C° 0 mm 2 mps 633 mmHg 46%
    19:00 +24°C° 0 mm 2 mps 633 mmHg 52%
    20:00 +22°C° 0 mm 1 mps 633 mmHg 59%
    21:00 +20°C° 0 mm 1 mps 632 mmHg 65%
    22:00 +20°C° 0 mm 1 mps 632 mmHg 64%
    23:00 +20°C° 0 mm 1 mps 632 mmHg 63%
    Show more